[[{"header":{"parameterUnit":"m.s-1","parameterCategory":1,"la1":30.2991,"la2":30.254,"lo1":-89.0895,"lo2":-89.0444,"dy":0.0017,"dx":0.0017,"nx":28,"ny":28,"refTime":"2026-02-03T09:00:00:Z","depth":0,"parameterNumber":2,"parameterNumberName":"U-component_of_WINDS"},"data":[0,0,0,0,0,0,0,0,0,0,0,0,0,0,0,0,0,0,0,0,0,0,0,0,0,0,0,0,0,0,0,0,0,0,0,0,0,0,0,0,0,0,0,0,0,0,0,0,0,0,0,0,0,0,0,0,0,0,1.1502,1.1501,0,1.1415,1.1415,1.1414,1.1341,1.134,1.134,1.1339,1.1253,1.1251,1.125,0,0,0,0,0,0,0,0,0,0,0,0,0,1.1607,1.1606,1.1502,1.1501,1.15,1.1416,1.1414,1.1413,1.1341,1.134,1.134,1.1339,1.1254,1.1252,1.125,0,0,0,0,0,0,0,0,0,0,0,0,0,1.1545,1.1605,1.1502,1.1454,1.1449,1.1416,1.1414,1.1413,1.1342,1.134,1.1339,1.1338,1.1254,1.1252,1.125,1.1259,0,0,1.1242,1.1241,0,0,0,0,0,0,0,0,1.1549,1.1542,1.1462,1.1457,1.1451,1.1388,1.142,1.1361,1.1342,1.1382,1.1339,1.1338,1.1299,1.1293,1.1279,1.1255,1.1251,1.1242,1.1241,1.124,1.1239,0,0,0,0,0,0,0,1.1553,1.1545,1.1468,1.1461,1.1454,1.1437,1.1427,1.1409,1.1348,1.1379,1.1373,1.1364,1.1296,1.1282,1.1277,1.125,1.1242,1.124,1.1239,1.1238,1.1229,1.123,0,0,0,0,0,0,1.1565,1.1549,1.1471,1.1465,1.1498,1.1436,1.1425,1.1409,1.1348,1.1338,1.1365,1.1361,1.1286,1.128,1.1274,1.128,1.124,1.1238,1.1236,1.1227,1.1229,1.123,0,0,0,0,0,0,1.1567,1.1559,1.1474,1.1506,1.1493,1.1436,1.1419,1.1408,1.1394,1.1338,1.1327,1.1361,1.1285,1.1277,1.1263,1.1276,1.1237,1.1234,1.1226,1.1228,1.123,1.1294,0,0,0,0,0,0,1.1571,1.156,1.1562,1.1506,1.1492,1.1464,1.142,1.1408,1.139,1.1384,1.1332,1.1322,1.1284,1.1267,1.1261,1.1272,1.1233,1.1225,1.1227,1.1229,1.1291,1.1298,1.1304,0,0,0,0,0,1.1575,1.1584,1.1563,1.1554,1.1494,1.1465,1.1457,1.1412,1.1391,1.1394,1.1358,1.1324,1.1276,1.1266,1.1258,1.127,1.1224,1.1226,1.1229,1.1288,1.1297,1.1304,0,0,0,0,0,0,1.1644,1.1576,1.1551,1.1543,1.151,1.1453,1.1454,1.1423,1.1396,1.1391,1.1337,1.1326,1.1318,1.1292,1.1282,1.1276,1.1245,1.1247,1.1293,1.1301,1.1307,1.1314,1.1231,0,0,0,0,0,1.1658,1.164,1.1582,1.158,1.1565,1.1513,1.1499,1.1467,1.1431,1.1417,1.138,1.1347,1.1325,1.1311,1.1288,1.1287,1.1275,1.1291,1.1298,1.1303,1.1305,1.1303,1.131,1.1239,1.1239,1.1239,0,0,1.1688,1.1648,1.164,1.1593,1.1564,1.1547,1.1502,1.1486,1.1473,1.1415,1.1399,1.1371,1.1331,1.1324,1.1319,1.1302,1.1322,1.1307,1.1312,1.131,1.1307,1.1313,1.132,1.124,1.124,1.124,0,0,1.1732,1.1701,1.1695,1.1667,1.1624,1.1589,1.1588,1.1535,1.1514,1.1498,1.1454,1.1438,1.1401,1.1374,1.1356,1.1391,1.1359,1.1385,1.1421,1.1419,1.1425,1.143,1.1443,1.1448,1.1387,1.1387,1.1387,0,1.1774,1.1746,1.1697,1.1684,1.1665,1.1611,1.1606,1.1581,1.1533,1.1521,1.1503,1.1455,1.1424,1.141,1.1419,1.1406,1.1403,1.1391,1.1428,1.1432,1.1436,1.1448,1.1453,1.1391,1.139,1.139,1.139,0,1.1801,1.1782,1.1783,1.1737,1.1718,1.1709,1.1659,1.1646,1.1616,1.1584,1.1568,1.1529,1.1497,1.1491,1.1462,1.1473,1.1464,1.1438,1.1407,1.1447,1.1457,1.1461,1.1395,1.1394,1.1393,1.1392,0,0,1.1886,1.1813,1.1814,1.1793,1.1741,1.1726,1.1715,1.1683,1.1673,1.1641,1.1631,1.1601,1.1576,1.1555,1.1523,1.1522,1.1553,1.1495,1.1493,1.1508,1.1563,1.1584,1.159,1.1531,1.1532,1.1532,1.1567,0,1.1923,1.1899,1.1854,1.1845,1.1828,1.1777,1.1767,1.1735,1.1705,1.1686,1.1653,1.1632,1.1601,1.1588,1.1585,1.155,1.1563,1.1547,1.1522,1.1522,1.1534,1.1595,1.1616,1.165,1.1571,1.1571,1.1572,0,1.1962,1.1933,1.1922,1.1871,1.1862,1.1855,1.1822,1.1804,1.1767,1.1745,1.1722,1.1686,1.1673,1.1644,1.1625,1.1615,1.1603,1.1584,1.1584,1.158,1.1549,1.1593,1.166,1.1666,1.1577,1.1577,1.1576,0,1.2025,1.1984,1.1972,1.1955,1.1896,1.1892,1.1867,1.1829,1.1812,1.1784,1.1773,1.1744,1.1728,1.1707,1.1664,1.1647,1.165,1.1618,1.1632,1.1633,1.1635,1.1636,1.1702,1.1627,1.1627,1.1627,1.1627,0,1.2071,1.2066,1.1999,1.1992,1.1986,1.1935,1.1931,1.1902,1.1868,1.1855,1.1809,1.1798,1.1742,1.1725,1.1692,1.1682,1.1675,1.1657,1.1649,1.1661,1.1664,1.1652,1.1649,1.1628,1.1628,1.1628,1.1628,0,1.214,1.2096,1.2079,1.2025,1.2011,1.2009,1.1963,1.1954,1.1921,1.1905,1.1899,1.1847,1.1824,1.178,1.1745,1.1723,1.172,1.1705,1.1733,1.1727,1.1744,1.1743,1.1805,1.1811,1.1733,1.1734,1.1735,0,1.2172,1.2167,1.2112,1.21,1.2077,1.2058,1.204,1.1991,1.1976,1.1933,1.193,1.1904,1.188,1.1846,1.1806,1.1779,1.1763,1.1787,1.1759,1.1772,1.1764,1.1765,1.1764,1.1793,1.1794,1.1795,1.1796,0,1.2233,1.2211,1.2188,1.2158,1.2138,1.2112,1.2083,1.2076,1.202,1.2005,1.1981,1.1963,1.1927,1.1901,1.1869,1.1844,1.1811,1.1805,1.1807,1.182,1.1836,1.1828,1.175,1.1804,1.1803,1.1802,1.1802,1.1802,1.2285,1.2278,1.2239,1.2215,1.2188,1.2162,1.2152,1.2118,1.2096,1.2063,1.2035,1.2014,1.1978,1.193,1.1908,1.1891,1.1875,1.1878,1.1878,1.188,1.1885,1.1839,1.1885,1.1885,1.1884,1.1884,1.1884,0,1.2344,1.2316,1.2294,1.2255,1.2237,1.2207,1.2174,1.216,1.2141,1.211,1.2088,1.206,1.2036,1.1994,1.1966,1.1961,1.1945,1.1955,1.1955,1.195,1.1901,1.1902,1.1968,1.1968,1.1968,1.1968,1.1968,1.1968,1.2372,1.2359,1.2333,1.2308,1.228,1.2258,1.2242,1.2218,1.2193,1.2164,1.2143,1.2116,1.2081,1.205,1.2027,1.2015,1.2007,1.2022,1.2006,1.1961,1.1953,1.1946,1.1947,1.2021,1.2021,1.2056,1.2057,1.2057]},{"header":{"parameterUnit":"m.s-1","parameterCategory":1,"la1":30.2991,"la2":30.254,"lo1":-89.0895,"lo2":-89.0444,"dy":0.0017,"dx":0.0017,"nx":28,"ny":28,"refTime":"2026-02-03T09:00:00:Z","depth":0,"parameterNumber":3,"parameterNumberName":"V-component_of_WINDS"},"data":[0,0,0,0,0,0,0,0,0,0,0,0,0,0,0,0,0,0,0,0,0,0,0,0,0,0,0,0,0,0,0,0,0,0,0,0,0,0,0,0,0,0,0,0,0,0,0,0,0,0,0,0,0,0,0,0,0,0,4.5564,4.5565,0,4.5687,4.5689,4.569,4.5688,4.5686,4.5685,4.5683,4.5811,4.5816,4.5821,0,0,0,0,0,0,0,0,0,0,0,0,0,4.5328,4.5332,4.5564,4.5565,4.5567,4.5687,4.5689,4.5691,4.5688,4.5686,4.5684,4.5682,4.581,4.5816,4.5822,0,0,0,0,0,0,0,0,0,0,0,0,0,4.5439,4.5333,4.5564,4.558,4.5583,4.5687,4.5689,4.5691,4.5689,4.5686,4.5684,4.5682,4.5808,4.5815,4.5822,4.5918,0,0,4.5845,4.5848,0,0,0,0,0,0,0,0,4.5432,4.5447,4.5576,4.5579,4.5583,4.567,4.5653,4.5767,4.5689,4.5649,4.5683,4.568,4.5766,4.5777,4.5806,4.5924,4.593,4.5846,4.585,4.5854,4.5856,0,0,0,0,0,0,0,4.5425,4.5442,4.5613,4.5578,4.5582,4.5582,4.5595,4.5674,4.572,4.5652,4.5652,4.5667,4.5768,4.5799,4.5809,4.5932,4.5846,4.5852,4.5857,4.586,4.6136,4.6139,0,0,0,0,0,0,4.5413,4.5436,4.5609,4.5616,4.55,4.5588,4.5603,4.5644,4.5719,4.5728,4.5669,4.5666,4.5787,4.58,4.5813,4.5932,4.5853,4.586,4.5865,4.6134,4.6137,4.614,0,0,0,0,0,0,4.5408,4.5429,4.5604,4.5526,4.5548,4.5595,4.5642,4.5648,4.5679,4.5732,4.574,4.5692,4.5786,4.5803,4.5892,4.5936,4.5864,4.5871,4.613,4.6135,4.6139,4.6169,0,0,0,0,0,0,4.5401,4.5427,4.5463,4.5527,4.5553,4.5681,4.5644,4.5652,4.5692,4.569,4.5756,4.5764,4.5785,4.5881,4.59,4.5945,4.5876,4.6126,4.6132,4.6137,4.6164,4.6173,4.6182,0,0,0,0,0,4.5393,4.5467,4.5465,4.5486,4.5599,4.5683,4.5698,4.572,4.5695,4.5733,4.5767,4.5762,4.5928,4.589,4.5911,4.5959,4.6124,4.613,4.6137,4.616,4.6172,4.6181,0,0,0,0,0,0,4.5408,4.5476,4.5475,4.5571,4.5621,4.5682,4.573,4.5731,4.5789,4.5785,4.581,4.5825,4.5915,4.5946,4.5903,4.6057,4.6023,4.6034,4.6033,4.6045,4.6053,4.6045,4.5883,0,0,0,0,0,4.5422,4.5484,4.554,4.562,4.5645,4.5684,4.5721,4.5733,4.5786,4.5808,4.5848,4.59,4.5964,4.6006,4.6068,4.6168,4.6183,4.6211,4.622,4.6227,4.6237,4.6293,4.6307,4.6161,4.6161,4.6161,0,0,4.5453,4.5498,4.5536,4.5624,4.5665,4.5729,4.5701,4.577,4.5819,4.5818,4.5906,4.5937,4.5997,4.6093,4.6137,4.6122,4.628,4.6235,4.624,4.6247,4.6302,4.6315,4.6327,4.6166,4.6165,4.6164,0,0,4.5543,4.5582,4.5654,4.5694,4.5756,4.578,4.5797,4.5859,4.588,4.5967,4.5969,4.6027,4.6136,4.6179,4.6215,4.6321,4.6319,4.634,4.6387,4.6442,4.6453,4.6463,4.6503,4.6516,4.6349,4.6349,4.6349,0,4.5574,4.567,4.569,4.576,4.58,4.5801,4.5875,4.5913,4.5992,4.602,4.6001,4.6138,4.6179,4.6285,4.6311,4.6339,4.6361,4.6333,4.6449,4.646,4.647,4.6508,4.6523,4.6351,4.6351,4.6351,4.6351,0,4.5706,4.5773,4.5823,4.5899,4.5944,4.6015,4.6046,4.609,4.6098,4.6125,4.6215,4.6263,4.6335,4.6361,4.637,4.6469,4.6458,4.6444,4.6411,4.6486,4.6522,4.6537,4.6355,4.6354,4.6353,4.6353,0,0,4.581,4.5895,4.5913,4.5948,4.6015,4.6068,4.6139,4.6209,4.6246,4.63,4.6361,4.6454,4.6441,4.6483,4.6496,4.6544,4.6627,4.6525,4.6526,4.6543,4.6741,4.6752,4.6769,4.6625,4.6628,4.663,4.6737,0,4.5907,4.6034,4.6054,4.6165,4.6228,4.6231,4.6293,4.6341,4.6368,4.6426,4.6456,4.6522,4.65,4.6525,4.6572,4.6606,4.6667,4.6599,4.6684,4.6687,4.6671,4.6787,4.68,4.6897,4.6751,4.6753,4.6755,0,4.6039,4.6096,4.6213,4.6273,4.63,4.6355,4.6422,4.6476,4.6532,4.6548,4.6594,4.6602,4.6677,4.6639,4.6743,4.6697,4.6733,4.6755,4.6759,4.677,4.6727,4.6803,4.6929,4.6944,4.6777,4.6775,4.6773,0,4.6105,4.6211,4.6295,4.6324,4.6395,4.6435,4.6466,4.6519,4.656,4.6618,4.6645,4.6711,4.6747,4.6798,4.6824,4.6794,4.6928,4.6892,4.6945,4.6945,4.6975,4.6973,4.7111,4.6995,4.6994,4.6994,4.6994,0,4.6213,4.6285,4.6326,4.6378,4.6459,4.6482,4.6562,4.6592,4.6639,4.6698,4.6704,4.6759,4.6789,4.6849,4.6869,4.6954,4.697,4.6986,4.6991,4.6987,4.6985,4.7012,4.7007,4.6998,4.6997,4.6996,4.6996,0,4.6301,4.6331,4.6423,4.6483,4.6499,4.6557,4.6608,4.666,4.6686,4.676,4.6779,4.6821,4.6892,4.6922,4.7009,4.7023,4.7121,4.712,4.7102,4.7104,4.7157,4.7152,4.7318,4.7342,4.7208,4.7209,4.721,0,4.6369,4.6425,4.649,4.653,4.6562,4.6626,4.6668,4.6692,4.6735,4.6803,4.6846,4.6917,4.6975,4.7088,4.7127,4.7194,4.7196,4.725,4.7206,4.7201,4.7199,4.7197,4.7203,4.7258,4.7259,4.7261,4.7261,0,4.6488,4.65,4.6559,4.6625,4.6674,4.6727,4.6778,4.681,4.6843,4.6891,4.6964,4.7009,4.7098,4.7168,4.7238,4.7271,4.7273,4.7274,4.7291,4.7288,4.7276,4.7286,4.7126,4.7271,4.727,4.7269,4.7269,4.7268,4.6569,4.6619,4.6673,4.674,4.6781,4.6829,4.688,4.6913,4.6973,4.7048,4.7058,4.7136,4.719,4.7284,4.732,4.7381,4.7368,4.7391,4.7398,4.7403,4.7408,4.7265,4.7394,4.7394,4.7393,4.7393,4.7393,0,4.669,4.6724,4.6785,4.6857,4.691,4.6905,4.6961,4.7006,4.7074,4.7125,4.7182,4.7265,4.7334,4.7378,4.7448,4.7489,4.7491,4.7506,4.7505,4.7513,4.7415,4.7394,4.7503,4.7503,4.7503,4.7503,4.7503,4.7503,4.6759,4.6843,4.6862,4.6967,4.7002,4.7078,4.7111,4.7155,4.7196,4.7289,4.7346,4.7373,4.7422,4.7495,4.7558,4.757,4.7596,4.7612,4.7623,4.7531,4.752,4.7509,4.749,4.7617,4.7617,4.7717,4.7718,4.7718]}]]